Regional Weather Roundup
Issued by NWS Newport/Morehead, NC

Current Version | Previous Version | Text Only | Print | Product List | Glossary On
Versions: 1 2 3 4 5 6 7 8 9 10 11 12 13 14 15 16 17 18 19 20 21 22 23 24 25 26 27 28 29 30 31 32 33 34 35 36 37 38 39 40 41 42 43 44 45 46 47 48 49 50
000 ASUS42 KMHX 280610 RWRMHX WEATHER ROUNDUP FOR EASTERN NORTH CAROLINA NATIONAL WEATHER SERVICE NEWPORT/MOREHEAD CITY NC 200 AM EDT MON JUL 28 2014 NOTE: "FAIR" INDICATES FEW OR NO CLOUDS BELOW 12,000 FEET WITH NO SIGNIFICANT WEATHER AND/OR OBSTRUCTIONS TO VISIBILITY NCZ015>017-031-032-045>047-102-103-280700- NORTH COAST CITY SKY/WX TMP DP RH WIND PRES REMARKS EDENTON PTCLDY 79 75 86 S9 29.74F ELIZABETH CITY PTCLDY 80 74 81 S14G23 29.72F KITTY HAWK MOCLDY 80 76 86 SW8G17 29.74F MANTEO NOT AVBL $$ NCZ045>047-081-094-103-104-280700- CENTRAL COAST CITY SKY/WX TMP DP RH WIND PRES REMARKS FRISCO CLOUDY 81 79 94 SW13G23 29.81F SWANQUARTER N/A 82 N/A N/A S10G17 29.74F $$ NCZ095-097-098-100-101-280700- SOUTHERN COAST CITY SKY/WX TMP DP RH WIND PRES REMARKS BEAUFORT CLOUDY 83 79 88 SW15 N/A CEDAR ISLAND N/A 82 N/A N/A SW6G17 29.82F JACKSONVILLE CLOUDY 82 76 81 SW9 29.79F NEWPORT NOT AVBL PINEY ISLAND CLOUDY 84 80 88 SW12 29.79F WILMINGTON MOCLDY 84 78 82 SW13 29.81F $$ NCZ011>013-027>030-043-044-078>080-089-090>093-098-280700- COASTAL PLAIN CITY SKY/WX TMP DP RH WIND PRES REMARKS AHOSKIE PTCLDY 76 72 85 S3 29.72F CLINTON CLOUDY 82 75 78 CALM 29.77F ELIZABETHTOWN CLOUDY 84 72 67 SW9 29.80F GOLDSBORO CLOUDY 83 77 81 SW9 29.74F GREENVILLE MOCLDY 81 73 78 SW8 29.77F HAVELOCK CLOUDY 83 77 82 SW12 29.81F KENANSVILLE CLOUDY 82 71 70 CALM 29.78F KINSTON CLOUDY 81 73 77 S7 29.77F NEW BERN CLOUDY 83 74 74 SW9 29.79F RICHLANDS CLOUDY 81 73 78 SW9 29.79S ROANOKE RAPIDS NOT AVBL ROCKY MOUNT CLOUDY 79 73 82 S8 29.74F WASHINGTON MOCLDY 79 74 84 S6 29.76F WHITEVILLE CLOUDY 83 73 71 SW7 29.82S $$ AMZ130-135-150-152-154-156-158-170-250-252-270-ANZ085-086-088-633-658-670-280700- MARINE OBSERVATIONS STATION/POSITION TIME TEMP WIND PRES WAVE SWELL AIR SEA DIR/SP/G HT/PER HT/PER (UTC) (F) (DEG/KT/KT) (MB) (FT/S) (FT/S) CHESAPEAKE LIGHT NOT AVBL BUOY 44014 0600 79 78 190/ 14/ 17 1006.4 3/ 5 2/10 DUCK 0600 81 69 200/ 13/ 18 1006.2 2E DUCK 0600 N/A 1/10 OREGON INLET 0600 82 82 210/ 17/ 20 1008.0 BUOY 44095 0600 78 N/A 3/ 4 20E OREGON INLET NOT AVBL HATTERAS CG 0600 81 82 220/ 11/ 19 1009.7 DIAMOND BUOY 0600 VRB 19/ 23 1009.2 5/ 5 2/ 8 CAPE LOOKOUT 0500 82 220/ 14/ 19 1009.8 BEAUFORT LAB 0600 83 83 210/ 11/ 16 1009.0 30 SE NEW RIVER 0600 82 81 230/ 21/ 25 1009.6 5/ 6 2/10 5 SE WRIGHTSVILL 0500 80 82 230/ 21/ 25 N/A BUOY 41002 0533 81 81 240/ 17/ 21 1014.5 5/ 6 2/ 9 BUOY 41004 0600 84 83 220/ 17/ 21 1011.2 5/ 5 2/10 $$

USA.gov is the U.S. government's official web portal to all federal, state and local government web resources and services.